CW8198 Weather Reports


time (UTC)temp
F
wind
direction
speed
knots
gust
knots
rain 1hr
in
rain 24hr
in
rain mn
in
humidity
%
barometer
mb
20260904160220 88 265 3.5 8.7 0.00 0.00 0.00 69 1012.1
20260904155219 87 265 4.3 10.4 0.00 0.00 0.00 68 1012.1
20260904154720 87 232 6.1 11.3 0.00 0.00 0.00 66 1012.0
20260904154220 87 254 4.3 11.3 0.00 0.00 0.00 67 1012.0
20260904153720 87 261 4.3 10.4 0.00 0.00 0.00 69 1012.0
20260904153219 86 267 6.1 12.2 0.00 0.00 0.00 69 1012.1
20260904152219 86 205 5.2 12.2 0.00 0.00 0.00 67 1012.0
20260904151720 85 230 4.3 13.0 0.00 0.00 0.00 69 1012.1
20260904151220 86 221 5.2 13.0 0.00 0.00 0.00 67 1012.0
20260904150719 85 265 4.3 9.6 0.00 0.00 0.00 69 1012.1
20260904150219 85 215 4.3 8.7 0.00 0.00 0.00 69 1012.0
20260904144719 84 211 5.2 10.4 0.00 0.00 0.00 69 1012.0
20260904144218 84 230 3.5 10.4 0.00 0.00 0.00 73 1012.0
20260904143718 83 219 4.3 8.7 0.00 0.00 0.00 70 1012.0
20260904143218 83 257 3.5 7.8 0.00 0.00 0.00 71 1012.0
20260904142718 83 221 5.2 7.8 0.00 0.00 0.00 70 1011.9
20260904141719 83 184 3.5 7.0 0.00 0.00 0.00 71 1012.0
20260904141217 83 232 2.6 7.0 0.00 0.00 0.00 72 1012.1
20260904140717 83 213 2.6 7.0 0.00 0.01 0.00 73 1012.1
20260904140218 82 202 3.5 6.1 0.00 0.01 0.00 72 1012.1
20260904134717 82 234 3.5 7.0 0.00 0.01 0.00 74 1011.9
20260904133215 81 221 3.5 5.2 0.00 0.01 0.00 75 1011.8
20260904132714 80 178 1.7 4.3 0.00 0.01 0.00 76 1011.7
20260904132214 80 186 1.7 4.3 0.00 0.01 0.00 76 1011.6
20260904131715 80 144 1.7 5.2 0.00 0.01 0.00 77 1011.6
20260904131213 80 196 2.6 5.2 0.00 0.01 0.00 77 1011.5
20260904130713 79 187 1.7 4.3 0.00 0.01 0.00 78 1011.4
20260904130214 79 162 1.7 3.5 0.00 0.01 0.00 79 1011.4
20260904125713 78 153 1.7 3.5 0.00 0.01 0.00 79 1011.3
20260904125213 78 141 1.7 3.5 0.00 0.01 0.00 79 1011.3
20260904123713 77 146 0.9 3.5 0.00 0.04 0.00 79 1011.2
20260904122712 77 196 1.7 4.3 0.00 0.06 0.00 79 1011.1
20260904122212 77 144 0.9 5.2 0.00 0.07 0.00 79 1011.1
20260904121212 77 162 2.6 4.3 0.00 0.07 0.00 79 1011.0
20260904120713 77 178 1.7 5.2 0.00 0.07 0.00 79 1011.0
20260904120213 77 185 1.7 5.2 0.00 0.07 0.00 79 1011.0
20260904115712 77 153 1.7 5.2 0.00 0.07 0.00 79 1010.9
20260904115212 77 205 1.7 5.2 0.00 0.07 0.00 78 1011.0
20260904114712 78 123 2.6 5.2 0.00 0.07 0.00 78 1010.9
20260904113712 78 178 1.7 4.3 0.00 0.07 0.00 77 1010.9
20260904113212 78 178 2.6 4.3 0.00 0.07 0.00 77 1010.9
20260904112712 78 137 1.7 4.3 0.00 0.07 0.00 77 1010.9
20260904112212 78 168 1.7 5.2 0.00 0.07 0.00 76 1011.0
20260904111713 78 190 1.7 5.2 0.00 0.07 0.00 76 1010.9
20260904111212 78 119 1.7 4.3 0.00 0.07 0.00 76 1011.0
20260904110711 78 202 1.7 4.3 0.00 0.07 0.00 76 1011.0
20260904110211 79 173 1.7 5.2 0.00 0.07 0.00 75 1010.9
20260904105211 79 178 1.7 7.0 0.00 0.07 0.00 74 1010.9
20260904104711 79 141 1.7 7.0 0.00 0.07 0.00 74 1010.8
20260904104210 79 196 3.5 7.0 0.00 0.07 0.00 74 1010.8
20260904103710 79 163 2.6 6.1 0.00 0.07 0.00 74 1010.8
20260904101709 80 178 2.6 5.2 0.00 0.07 0.00 72 1010.8
20260904101210 80 190 2.6 8.7 0.00 0.07 0.00 71 1010.9
20260904100710 80 178 4.3 8.7 0.00 0.07 0.00 71 1010.9
20260904100209 80 147 4.3 7.8 0.00 0.07 0.00 71 1010.8
20260904095709 81 166 3.5 7.8 0.00 0.07 0.00 71 1010.8
20260904095209 81 187 3.5 8.7 0.00 0.07 0.00 71 1010.8
20260904093709 81 201 6.1 13.0 0.00 0.07 0.00 71 1010.6
20260904093208 81 171 2.6 9.6 0.00 0.07 0.00 71 1010.6
20260904092708 82 192 4.3 11.3 0.00 0.07 0.00 69 1010.6
20260904092210 82 198 4.3 13.0 0.00 0.07 0.00 69 1010.5
20260904091708 82 209 5.2 13.0 0.00 0.07 0.00 68 1010.4
20260904091209 83 165 4.3 12.2 0.00 0.07 0.00 68 1010.5
20260904090709 83 85 5.2 12.2 0.00 0.07 0.00 68 1010.4
20260904090208 82 226 5.2 12.2 0.00 0.07 0.00 69 1010.3
20260904085708 82 207 7.0 12.2 0.00 0.07 0.00 70 1010.3
20260904085208 81 215 5.2 11.3 0.00 0.07 0.00 70 1010.2
20260904084708 81 198 5.2 9.6 0.00 0.07 0.00 70 1010.2
20260904084208 81 135 5.2 11.3 0.00 0.07 0.00 69 1010.3
20260904083707 82 196 4.3 13.0 0.00 0.07 0.00 69 1010.3
20260904083209 82 221 6.1 13.0 0.00 0.07 0.00 69 1010.2
20260904082707 82 211 6.1 11.3 0.00 0.07 0.00 68 1010.2
20260904082210 81 131 5.2 13.9 0.00 0.07 0.00 68 1010.2
20260904081708 81 178 5.2 13.9 0.00 0.07 0.00 68 1010.0
20260904081208 81 173 5.2 13.0 0.00 0.07 0.00 69 1010.0
20260904080707 81 198 6.1 13.0 0.00 0.07 0.00 69 1010.0
20260904080207 81 196 7.0 13.9 0.00 0.07 0.00 69 1010.0
20260904075707 81 193 7.0 13.9 0.00 0.07 0.00 68 1010.2
20260904075207 82 198 7.8 13.9 0.00 0.07 0.00 67 1010.2
20260904074707 82 169 7.0 14.8 0.00 0.07 0.00 66 1010.2
20260904074207 83 141 7.0 14.8 0.00 0.07 0.00 65 1010.3
20260904073707 83 218 5.2 11.3 0.00 0.07 0.00 64 1010.3
20260904073206 83 238 6.1 10.4 0.00 0.07 0.00 65 1010.3
20260904072706 83 221 4.3 10.4 0.00 0.07 0.00 64 1010.0
20260904072208 83 193 5.2 11.3 0.00 0.07 0.00 64 1010.2
20260904071706 83 205 3.5 11.3 0.00 0.07 0.00 64 1010.2
20260904071206 83 231 5.2 12.2 0.00 0.07 0.00 64 1010.3
20260904070206 83 147 5.2 9.6 0.00 0.07 0.00 63 1010.2
20260904065706 83 221 4.3 13.0 0.00 0.07 0.00 63 1010.2
20260904065206 83 226 3.5 13.0 0.00 0.07 0.00 63 1010.3
20260904064706 83 189 3.5 9.6 0.00 0.07 0.00 63 1010.3
20260904064205 83 196 4.3 11.3 0.00 0.07 0.00 63 1010.3
20260904063705 83 147 4.3 11.3 0.00 0.07 0.00 63 1010.3
20260904063205 83 146 3.5 10.4 0.00 0.07 0.00 63 1010.2
20260904062705 83 202 3.5 10.4 0.00 0.07 0.00 63 1010.3
20260904062206 83 61 4.3 8.7 0.00 0.07 0.00 63 1010.3
20260904061705 83 178 4.3 7.8 0.00 0.07 0.00 63 1010.2
20260904061205 83 147 4.3 11.3 0.00 0.07 0.00 62 1010.0
20260904060705 84 137 5.2 11.3 0.00 0.07 0.00 62 1010.0
20260904060204 84 168 5.2 10.4 0.00 0.07 0.00 62 1010.2
20260904055704 84 218 5.2 11.3 0.00 0.07 0.00 62 1010.2
20260904055204 84 165 6.1 11.3 0.00 0.07 0.00 62 1010.2
20260904054204 84 163 6.1 10.4 0.00 0.07 0.00 62 1010.0
20260904053704 84 173 4.3 8.7 0.00 0.07 0.00 62 1010.0
20260904052703 84 211 4.3 11.3 0.00 0.07 0.00 62 1009.9
20260904052204 84 175 3.5 11.3 0.00 0.07 0.00 63 1009.8
20260904051203 84 135 3.5 10.4 0.00 0.07 0.00 63 1009.8
20260904050700 84 178 3.5 13.9 0.00 0.07 0.00 63 1009.8
20260904050200 84 178 5.2 13.9 0.00 0.07 0.00 62 1009.8
20260904045701 84 183 3.5 11.3 0.00 0.07 0.07 62 1009.8
20260904044700 84 182 4.3 7.8 0.00 0.07 0.07 62 1009.7
20260904043700 85 123 5.2 9.6 0.00 0.07 0.07 63 1009.7
20260904043200 85 225 4.3 10.4 0.00 0.07 0.07 62 1009.7
20260904042200 85 170 4.3 10.4 0.00 0.07 0.07 62 1009.7
20260904041700 85 128 3.5 10.4 0.00 0.07 0.07 62 1009.7
20260904040659 85 132 4.3 8.7 0.00 0.07 0.07 62 1009.8
20260904040159 85 153 4.3 11.3 0.00 0.07 0.07 62 1009.8
20260904034659 85 185 3.5 12.2 0.00 0.07 0.07 62 1009.8
20260904033157 86 221 4.3 8.7 0.00 0.07 0.07 62 1009.8
20260904032657 86 153 4.3 9.6 0.00 0.07 0.07 62 1009.7
20260904031155 86 144 4.3 9.6 0.00 0.07 0.07 61 1009.7
20260904030156 86 158 5.2 11.3 0.00 0.07 0.07 61 1009.6
20260904025655 86 173 3.5 10.4 0.00 0.07 0.07 62 1009.6
20260904024655 86 123 3.5 7.8 0.00 0.07 0.07 62 1009.6
20260904024153 87 178 3.5 8.7 0.00 0.07 0.07 62 1009.6
20260904023153 87 147 3.5 10.4 0.00 0.07 0.07 61 1009.5
20260904022653 87 178 3.5 10.4 0.00 0.07 0.07 61 1009.5
20260904022155 87 187 4.3 9.6 0.00 0.07 0.07 61 1009.5
20260904021653 87 124 4.3 8.7 0.00 0.07 0.07 61 1009.5
20260904021153 87 141 4.3 8.7 0.00 0.07 0.07 61 1009.4
20260904020653 87 177 3.5 8.7 0.00 0.07 0.07 61 1009.3
20260904015653 88 177 2.6 8.7 0.00 0.07 0.07 60 1009.4
20260904014652 88 148 2.6 9.6 0.00 0.07 0.07 59 1009.3
20260904014152 88 188 3.5 9.6 0.00 0.07 0.07 59 1009.1
20260904013651 88 142 3.5 7.8 0.00 0.07 0.07 59 1009.1
20260904013152 89 165 3.5 8.7 0.00 0.07 0.07 59 1009.0
20260904012152 89 178 2.6 10.4 0.00 0.07 0.07 58 1009.0
20260904011651 89 153 2.6 10.4 0.00 0.07 0.07 58 1008.9
20260904011151 89 144 3.5 12.2 0.00 0.07 0.07 58 1008.8
20260904010650 90 131 4.3 12.2 0.00 0.07 0.07 58 1008.7
20260904010150 90 128 3.5 10.4 0.00 0.07 0.07 58 1008.7
20260904005650 90 178 5.2 9.6 0.00 0.07 0.07 58 1008.7
20260904005151 90 146 4.3 9.6 0.00 0.07 0.07 58 1008.7
20260904004150 91 140 2.6 7.8 0.00 0.07 0.07 57 1008.5
20260904003650 91 210 2.6 10.4 0.00 0.07 0.07 56 1008.4
20260904003149 91 138 3.5 10.4 0.00 0.07 0.07 56 1008.4
20260904002650 92 212 3.5 8.7 0.00 0.07 0.07 55 1008.4
20260904001649 92 175 5.2 10.4 0.00 0.07 0.07 54 1008.4
20260904001149 92 166 4.3 10.4 0.00 0.07 0.07 54 1008.3
20260904000650 92 138 4.3 10.4 0.00 0.07 0.07 54 1008.4
20260903235649 93 162 6.1 13.9 0.00 0.07 0.07 53 1008.3
20260903235149 93 187 3.5 10.4 0.00 0.07 0.07 53 1008.3
20260903234648 93 165 6.1 13.9 0.00 0.07 0.07 52 1008.3
20260903234148 93 178 7.0 13.9 0.00 0.07 0.07 52 1008.3
20260903233148 94 163 6.1 11.3 0.00 0.07 0.07 52 1008.2
20260903232648 94 171 3.5 8.7 0.00 0.07 0.07 53 1008.3
20260903232149 94 182 4.3 10.4 0.00 0.07 0.07 52 1008.2
20260903231643 94 177 6.1 13.0 0.00 0.07 0.07 51 1008.1
20260903231144 94 166 8.7 13.9 0.00 0.07 0.07 51 1008.1
20260903230643 94 144 7.0 13.9 0.00 0.07 0.07 51 1008.2
20260903230143 94 186 7.0 14.8 0.00 0.07 0.07 51 1008.2
20260903225142 95 171 5.2 10.4 0.00 0.07 0.07 52 1008.1
20260903224642 95 226 4.3 9.6 0.00 0.07 0.07 52 1008.1
20260903224141 95 171 4.3 9.6 0.00 0.07 0.07 53 1008.1
20260903223641 95 201 4.3 12.2 0.00 0.07 0.07 53 1008.1
20260903222641 95 178 5.2 10.4 0.00 0.07 0.07 53 1008.1
20260903222142 95 173 4.3 11.3 0.00 0.07 0.07 53 1008.1
20260903221641 95 208 7.8 11.3 0.00 0.07 0.07 52 1008.1
20260903221140 95 200 6.1 15.6 0.00 0.07 0.07 53 1008.1
20260903220640 95 161 4.3 15.6 0.00 0.07 0.07 52 1008.2
20260903215639 95 182 6.1 14.8 0.00 0.07 0.07 52 1008.1
20260903215139 95 160 8.7 14.8 0.00 0.07 0.07 51 1008.3
20260903214638 96 155 6.1 13.0 0.00 0.07 0.07 52 1008.0
20260903214139 96 203 5.2 10.4 0.00 0.07 0.07 52 1008.1
20260903213638 96 207 5.2 10.4 0.00 0.07 0.07 51 1008.1
20260903212637 96 128 7.0 13.9 0.00 0.07 0.07 51 1008.1
20260903212138 96 202 7.8 16.5 0.00 0.07 0.07 50 1008.1
20260903211636 96 209 6.1 16.5 0.00 0.07 0.07 49 1008.1
20260903211136 96 126 9.6 16.5 0.00 0.07 0.07 49 1008.1
20260903210136 95 187 7.0 14.8 0.00 0.07 0.07 50 1008.2
20260903205636 95 229 5.2 13.9 0.00 0.07 0.07 51 1008.3
20260903205135 95 155 6.1 13.9 0.00 0.07 0.07 51 1008.1
20260903204636 95 193 7.0 13.0 0.00 0.07 0.07 50 1008.3
20260903204136 96 167 7.0 13.0 0.00 0.07 0.07 51 1008.3
20260903203634 96 183 7.0 11.3 0.00 0.07 0.07 52 1008.4
20260903203135 96 75 7.0 11.3 0.00 0.07 0.07 51 1008.4
20260903202634 96 185 4.3 13.9 0.00 0.07 0.07 51 1008.4
20260903202136 95 162 7.0 13.9 0.00 0.07 0.07 51 1008.6
20260903201634 95 198 7.8 13.9 0.00 0.07 0.07 50 1008.6
20260903201134 95 193 5.2 12.2 0.00 0.07 0.07 52 1008.7
20260903200634 94 182 6.1 12.2 0.00 0.07 0.07 53 1008.7
20260903200133 94 205 6.1 15.6 0.00 0.07 0.07 55 1008.7
20260903195633 94 198 4.3 15.6 0.00 0.07 0.07 55 1008.8
20260903195134 94 223 6.1 16.5 0.00 0.07 0.07 56 1008.8
20260903194633 94 190 8.7 16.5 0.00 0.07 0.07 55 1008.8
20260903194133 93 140 6.1 11.3 0.00 0.07 0.07 56 1009.0
20260903193633 93 207 4.3 12.2 0.00 0.07 0.07 57 1009.0
20260903193132 93 195 5.2 12.2 0.00 0.07 0.07 57 1009.1
20260903192632 93 156 4.3 12.2 0.00 0.07 0.07 57 1009.1
20260903192134 93 162 5.2 13.0 0.00 0.07 0.07 58 1009.0
20260903191632 92 178 6.1 13.0 0.00 0.07 0.07 57 1009.0
20260903190632 92 153 6.1 13.9 0.00 0.07 0.07 58 1009.1
20260903190131 92 169 7.0 13.0 0.00 0.07 0.07 58 1009.3
20260903185631 92 154 4.3 11.3 0.00 0.07 0.07 58 1009.4
20260903184630 91 147 5.2 12.2 0.00 0.07 0.07 58 1009.4
20260903184130 91 189 6.1 13.9 0.00 0.07 0.07 58 1009.7
20260903183630 91 162 6.1 13.9 0.00 0.07 0.07 59 1009.7
20260903183130 91 151 5.2 11.3 0.00 0.07 0.07 58 1009.7
20260903182630 91 195 5.2 10.4 0.00 0.07 0.07 60 1009.8
20260903182132 91 187 4.3 10.4 0.00 0.07 0.07 60 1009.8
20260903181630 91 195 6.1 10.4 0.00 0.07 0.07 58 1010.0
20260903181129 91 126 6.1 11.3 0.00 0.07 0.07 57 1009.9
20260903180129 90 196 5.2 12.2 0.00 0.07 0.07 59 1010.3
20260903175628 90 217 4.3 14.8 0.00 0.07 0.07 58 1010.4
20260903175129 90 182 7.0 14.8 0.00 0.07 0.07 58 1010.3
20260903174628 90 135 5.2 9.6 0.00 0.07 0.07 59 1010.3
20260903172628 88 187 4.3 11.3 0.00 0.07 0.07 62 1010.4
20260903172129 88 195 5.2 10.4 0.00 0.07 0.07 61 1010.2
20260903171127 87 147 4.3 10.4 0.00 0.07 0.07 64 1010.3
20260903170627 87 175 5.2 9.6 0.00 0.07 0.07 65 1010.3
20260903170126 86 225 4.3 8.7 0.00 0.07 0.07 67 1010.4
20260903165626 85 189 4.3 8.7 0.00 0.07 0.07 68 1010.4
20260903165125 84 186 5.2 8.7 0.00 0.07 0.07 69 1010.5
20260903164626 83 123 3.5 7.8 0.00 0.07 0.07 71 1010.5
20260903164126 83 137 3.5 7.8 0.00 0.07 0.07 70 1010.6
20260903163626 83 178 3.5 8.7 0.00 0.07 0.07 69 1010.6
20260903163126 83 135 4.3 9.6 0.00 0.07 0.07 68 1010.6
20260903162625 83 178 3.5 6.1 0.00 0.07 0.07 69 1010.6
20260903162126 83 175 2.6 7.8 0.00 0.07 0.07 70 1010.8
20260903161124 82 144 3.5 7.8 0.00 0.07 0.07 70 1010.5
20260903160625 82 128 3.5 7.8 0.00 0.07 0.07 70 1010.6